User: anonymous   Login
Location: Cantaing
(50.1487°N, 3.1675°E)
Time: 10:24:44
(UTC+00:00)
Language:

ARIANE 6 FM1 Upper Stage - Orbit

View from above orbital plane
View from above orbital plane
View from above satellite
View from above satellite

Ground track
Ground track

The orbit is defined by the following mean orbital elements,

1 60235U          26071.97287258 +.00000000 +00000-0 +30493-3 0 00005
2 60235  61.9933 205.7933 0060199 113.3622 247.3816 15.00671847    01
Epoch (UTC): 12 March 2026 23:20:56
Eccentricity: 0.0060199
inclination: 61.9933°
perigee height: 523 km
apogee height: 607 km
right ascension of ascending node: 205.7933°
argument of perigee: 113.3622°
revolutions per day: 15.00671847
mean anomaly at epoch: 247.3816°

The dashed part of the orbit path shows where the satellite is in the earth's shadow,  

DLR